星链-2595 (STARLINK-2595 )

导读

STARLINK-2595是美国SpaceX星链卫星互联网项目的组网卫星,于2021年5月4日发射升空。星链计划旨在构建全球卫星互联网星座,该卫星承担低轨通信组网任务,为偏远地区、海上等场景提供宽带互联网接入服务,是星链低轨星座部署进程中的一颗典型组网卫星。

基本信息
目录编号:
48407
目录名称:
STARLINK-2595
国际标识:
2021-038BG
轨道中心:
EARTH
卫星名称:
星链-2595
卫星全名:
星链-2595 (STARLINK-2595 )
卫星状态:
已陨落 最后检测时间 2025-12-31
发射日期:
2021-05-04 UTC
国别 :
美国 (US)
星等 :
--
该卫星已列入 空间交会检测服务 Space Conjunction Data Service (SCDS) ,当前飞行风险评估等级: 无高风险
轨道信息
数据来源 国际轨道数据
星历时间: 2025-12-31T08:43:27+0800
轨道信息已过期254天
半长轴: 6567.047km
偏心率: 0.0008622
轨道倾角: 53.008°
近地点辐角 259.946°
升交点赤经 187.244°
平近点角 100.061°
近地点: 183.247km
远地点: 194.573km
周期: 88.270分钟
每日圈数: 16.313517
详细信息
固有亮度:
5
最大亮度:
2.5
卫星平台:
Starlink V1.0
覆盖范围:
全球
运营商:
太空探索技术公司
运营商所在国:
美国
制造商(研发单位):
太空探索技术公司
制造商所在国:
美国
使用方式:
暂无
卫星简介
星链(Starlink)计划是由太空探索技术公司(SpaceX)提出的一个巨型低轨卫星互联网星座项目,计划在2019年至2024年间在太空搭建由约1.2万颗卫星组成的“星链”网络,其中1584颗将部署在地球上空550千米处的近地轨道,并从2020年开始工作。该卫星仍在工作。
与全量物体交会距离演化趋势
与全量物体交会风险概率演化趋势